sat.trackr.live / text

‹ back to catalog

WGS F1 (USA 195)

NORAD 32258 · 2007-046A

PAYLOAD ACTIVE UNKNOWN

§ Identity

Operator
Country
US
Launch date
2007-10-11
Launch site
AFETR
Launch vehicle
Mass (kg)
RCS (m²)
15.89

Purposes: comms

External: N2YO · Heavens-Above · Gunter

§ Orbital elements

Epoch: 2026-05-25T03:35:33.020736Z

Period
1,436.16 min
Inclination
0.0598°
Eccentricity
0.0000058
Mean motion
1.00267114 rev/d
Perigee alt
35,787.7 km
Apogee alt
35,788.1 km
Semi-major
42,166.0 km
B*
0.0000e+0
RAAN
94.8033°
Arg perigee
329.8651°
Mean anomaly
189.4555°
Rev number
5,210

§ Raw data

WGS F1 (USA 195)1 32258U 07046A   26145.14968774 -.00000270  00000+0  00000+0 0  99992 32258   0.0598  94.8033 0000058 329.8651 189.4555  1.00267114 52105

JSON: /api/v1/satellites/32258 · /tle

For live sub-satellite position, see the globe view (requires WebGL).

§ Visibility from observer

Set your observer location to see the next 7 days of passes ≥ 10°. The values pass through the URL so the page stays shareable.

No JS? Fill the form by hand. The geolocation button needs JavaScript.